Time,TemperatureF,DewpointF,PressureIn,WindDirection,WindDirectionDegrees,WindSpeedMPH,WindSpeedGustMPH,Humidity,HourlyPrecipIn,Conditions,Clouds,dailyrainin,SoftwareType,DateUTC
2013-04-16 00:02:00,47.0,43.0,29.80,NW,311,1.0,2.0,86,0.02,,,0.34,,2013-04-16 00:02:00,
2013-04-16 00:12:00,47.0,43.0,29.80,NW,311,1.0,2.0,86,0.02,,,0.34,,2013-04-16 00:12:00,
2013-04-16 00:22:00,46.0,42.0,29.80,WNW,290,5.0,6.0,86,0.01,,,0.34,,2013-04-16 00:22:00,
2013-04-16 00:32:00,46.0,41.0,29.81,WNW,284,2.0,8.0,84,0.01,,,0.34,,2013-04-16 00:32:00,
2013-04-16 00:42:00,46.0,41.0,29.81,WNW,284,2.0,8.0,84,0.01,,,0.34,,2013-04-16 00:42:00,
2013-04-16 00:52:00,45.0,41.0,29.81,WNW,285,1.0,7.0,86,0.01,,,0.35,,2013-04-16 00:52:00,
2013-04-16 01:02:00,45.0,41.0,29.81,WNW,285,1.0,7.0,86,0.01,,,0.35,,2013-04-16 01:02:00,
2013-04-16 01:12:00,45.0,41.0,29.81,WNW,285,1.0,7.0,86,0.01,,,0.35,,2013-04-16 01:12:00,
2013-04-16 01:22:00,44.0,40.0,29.84,West,270,3.0,8.0,87,0.02,,,0.36,,2013-04-16 01:22:00,
2013-04-16 01:32:00,44.0,39.0,29.85,WNW,292,4.0,9.0,83,0.02,,,0.36,,2013-04-16 01:32:00,
2013-04-16 01:42:00,44.0,39.0,29.85,WNW,292,4.0,9.0,83,0.02,,,0.36,,2013-04-16 01:42:00,
2013-04-16 01:52:00,43.0,38.0,29.86,WNW,302,3.0,7.0,84,0.01,,,0.36,,2013-04-16 01:52:00,
2013-04-16 02:02:00,43.0,39.0,29.87,WNW,292,0.0,3.0,86,0.00,,,0.36,,2013-04-16 02:02:00,
2013-04-16 02:12:00,43.0,39.0,29.87,WNW,292,0.0,3.0,86,0.00,,,0.36,,2013-04-16 02:12:00,
2013-04-16 02:22:00,43.0,40.0,29.87,West,279,0.0,3.0,88,0.00,,,0.36,,2013-04-16 02:22:00,
2013-04-16 02:32:00,43.0,40.0,29.88,West,279,0.0,1.0,89,0.01,,,0.37,,2013-04-16 02:32:00,
2013-04-16 02:42:00,43.0,40.0,29.88,West,279,0.0,1.0,89,0.01,,,0.37,,2013-04-16 02:42:00,
2013-04-16 02:52:00,43.0,40.0,29.89,WNW,282,0.0,3.0,90,0.01,,,0.37,,2013-04-16 02:52:00,
2013-04-16 03:02:00,43.0,41.0,29.90,WNW,282,0.0,3.0,91,0.01,,,0.37,,2013-04-16 03:02:00,
2013-04-16 03:12:00,43.0,41.0,29.90,WNW,282,0.0,3.0,91,0.01,,,0.37,,2013-04-16 03:12:00,
2013-04-16 03:22:00,43.0,41.0,29.91,WNW,283,0.0,4.0,91,0.01,,,0.37,,2013-04-16 03:22:00,
2013-04-16 03:33:00,43.0,41.0,29.91,WNW,283,2.0,3.0,91,0.01,,,0.37,,2013-04-16 03:33:00,
2013-04-16 03:43:00,43.0,41.0,29.91,WNW,283,2.0,3.0,91,0.01,,,0.37,,2013-04-16 03:43:00,
2013-04-16 03:53:00,43.0,41.0,29.92,WNW,283,0.0,2.0,92,0.01,,,0.38,,2013-04-16 03:53:00,
2013-04-16 04:03:00,43.0,41.0,29.91,West,277,0.0,4.0,93,0.01,,,0.38,,2013-04-16 04:03:00,
2013-04-16 04:12:00,43.0,41.0,29.91,West,277,0.0,4.0,93,0.01,,,0.38,,2013-04-16 04:12:00,
2013-04-16 04:23:00,42.0,40.0,29.93,WNW,284,0.0,4.0,94,0.01,,,0.38,,2013-04-16 04:23:00,
2013-04-16 04:33:00,42.0,40.0,29.92,WNW,284,0.0,3.0,94,0.01,,,0.38,,2013-04-16 04:33:00,
2013-04-16 04:42:00,42.0,40.0,29.92,WNW,284,0.0,3.0,94,0.01,,,0.38,,2013-04-16 04:42:00,
2013-04-16 04:53:00,42.0,40.0,29.93,WNW,284,2.0,3.0,94,0.00,,,0.38,,2013-04-16 04:53:00,
2013-04-16 05:02:00,42.0,40.0,29.91,WNW,293,0.0,4.0,93,0.00,,,0.38,,2013-04-16 05:02:00,
2013-04-16 05:12:00,42.0,40.0,29.91,WNW,293,0.0,4.0,93,0.00,,,0.38,,2013-04-16 05:12:00,
2013-04-16 05:22:00,42.0,40.0,29.90,WNW,288,4.0,5.0,93,0.00,,,0.38,,2013-04-16 05:22:00,
2013-04-16 05:32:00,42.0,40.0,29.90,WNW,288,0.0,6.0,93,0.00,,,0.38,,2013-04-16 05:32:00,
2013-04-16 05:42:00,42.0,40.0,29.90,WNW,288,0.0,6.0,93,0.00,,,0.38,,2013-04-16 05:42:00,
2013-04-16 05:52:00,42.0,40.0,29.91,WNW,292,0.0,3.0,93,0.00,,,0.35,,2013-04-16 05:52:00,
2013-04-16 06:02:00,42.0,40.0,29.91,WNW,292,0.0,3.0,93,0.00,,,0.35,,2013-04-16 06:02:00,
2013-04-16 06:12:00,42.0,40.0,29.91,WNW,292,0.0,3.0,93,0.00,,,0.35,,2013-04-16 06:12:00,
2013-04-16 06:22:00,42.0,40.0,29.91,WNW,292,0.0,3.0,93,0.00,,,0.35,,2013-04-16 06:22:00,
2013-04-16 06:32:00,42.0,40.0,29.91,WNW,296,0.0,2.0,93,0.00,,,0.13,,2013-04-16 06:32:00,
2013-04-16 06:42:00,42.0,40.0,29.91,WNW,296,0.0,2.0,93,0.00,,,0.13,,2013-04-16 06:42:00,
2013-04-16 06:52:00,41.0,39.0,29.91,WNW,296,0.0,4.0,93,0.00,,,0.11,,2013-04-16 06:52:00,
2013-04-16 07:02:00,40.0,38.0,29.90,WNW,296,0.0,0.0,94,0.00,,,0.10,,2013-04-16 07:02:00,
2013-04-16 07:12:00,40.0,38.0,29.90,WNW,296,0.0,0.0,94,0.00,,,0.10,,2013-04-16 07:12:00,
2013-04-16 07:22:00,40.0,39.0,29.91,WNW,303,2.0,5.0,95,0.00,,,0.10,,2013-04-16 07:22:00,
2013-04-16 07:32:00,40.0,39.0,29.93,WNW,283,0.0,5.0,95,0.00,,,0.09,,2013-04-16 07:32:00,
2013-04-16 07:42:00,40.0,39.0,29.93,WNW,283,0.0,5.0,95,0.00,,,0.09,,2013-04-16 07:42:00,
2013-04-16 07:53:00,39.0,38.0,29.93,WNW,283,0.0,2.0,95,0.00,,,0.09,,2013-04-16 07:53:00,
2013-04-16 08:02:00,39.0,38.0,29.93,WNW,283,0.0,2.0,95,0.00,,,0.09,,2013-04-16 08:02:00,
2013-04-16 08:12:00,39.0,38.0,29.93,WNW,283,0.0,2.0,95,0.00,,,0.09,,2013-04-16 08:12:00,
2013-04-16 08:22:00,38.0,37.0,29.94,WNW,283,1.0,3.0,96,0.00,,,0.08,,2013-04-16 08:22:00,
2013-04-16 08:32:00,39.0,38.0,29.94,WNW,284,0.0,4.0,96,0.00,,,0.08,,2013-04-16 08:32:00,
2013-04-16 08:42:00,39.0,38.0,29.94,WNW,284,0.0,4.0,96,0.00,,,0.08,,2013-04-16 08:42:00,
2013-04-16 08:52:00,38.0,37.0,29.94,WNW,284,0.0,2.0,96,0.00,,,0.08,,2013-04-16 08:52:00,
2013-04-16 09:02:00,38.0,37.0,29.95,WNW,284,0.0,3.0,95,0.00,,,0.08,,2013-04-16 09:02:00,
2013-04-16 09:12:00,38.0,37.0,29.95,WNW,284,0.0,3.0,95,0.00,,,0.08,,2013-04-16 09:12:00,
2013-04-16 09:22:00,38.0,37.0,29.95,WNW,284,0.0,3.0,95,0.00,,,0.08,,2013-04-16 09:22:00,
2013-04-16 09:33:00,37.0,36.0,29.96,WNW,284,2.0,2.0,95,0.00,,,0.08,,2013-04-16 09:33:00,
2013-04-16 09:42:00,37.0,36.0,29.96,WNW,284,2.0,2.0,95,0.00,,,0.08,,2013-04-16 09:42:00,
2013-04-16 09:53:00,37.0,36.0,29.97,WNW,284,0.0,2.0,95,0.00,,,0.08,,2013-04-16 09:53:00,
2013-04-16 10:03:00,37.0,35.0,29.97,WNW,284,0.0,2.0,94,0.00,,,0.08,,2013-04-16 10:03:00,
2013-04-16 10:13:00,37.0,35.0,29.97,WNW,284,0.0,2.0,94,0.00,,,0.08,,2013-04-16 10:13:00,
2013-04-16 10:23:00,37.0,35.0,29.98,WNW,284,0.0,3.0,93,0.00,,,0.08,,2013-04-16 10:23:00,
2013-04-16 10:33:00,36.0,34.0,29.97,WNW,284,0.0,2.0,92,0.00,,,0.08,,2013-04-16 10:33:00,
2013-04-16 10:42:00,36.0,34.0,29.97,WNW,284,0.0,2.0,92,0.00,,,0.08,,2013-04-16 10:42:00,
2013-04-16 10:53:00,36.0,34.0,29.97,WNW,284,0.0,1.0,92,0.00,,,0.08,,2013-04-16 10:53:00,
2013-04-16 11:02:00,35.0,33.0,29.98,WNW,284,2.0,2.0,93,0.00,,,0.08,,2013-04-16 11:02:00,
2013-04-16 11:12:00,35.0,33.0,29.98,WNW,284,2.0,2.0,93,0.00,,,0.08,,2013-04-16 11:12:00,
2013-04-16 11:22:00,36.0,34.0,29.99,WNW,289,0.0,4.0,92,0.00,,,0.08,,2013-04-16 11:22:00,
2013-04-16 11:32:00,36.0,34.0,29.99,NW,315,0.0,6.0,91,0.00,,,0.08,,2013-04-16 11:32:00,
2013-04-16 11:42:00,36.0,34.0,29.99,NW,315,0.0,6.0,91,0.00,,,0.08,,2013-04-16 11:42:00,
2013-04-16 11:53:00,36.0,34.0,30.01,WNW,292,0.0,3.0,91,0.00,,,0.08,,2013-04-16 11:53:00,
2013-04-16 12:02:00,36.0,33.0,30.01,NW,307,1.0,3.0,90,0.00,,,0.08,,2013-04-16 12:02:00,
2013-04-16 12:12:00,36.0,33.0,30.01,NW,307,1.0,3.0,90,0.00,,,0.08,,2013-04-16 12:12:00,
2013-04-16 12:22:00,36.0,33.0,30.03,NW,307,0.0,2.0,90,0.00,,,0.08,,2013-04-16 12:22:00,
2013-04-16 12:32:00,37.0,34.0,30.03,NW,307,0.0,1.0,90,0.00,,,0.08,,2013-04-16 12:32:00,
2013-04-16 12:42:00,37.0,34.0,30.03,NW,307,0.0,1.0,90,0.00,,,0.08,,2013-04-16 12:42:00,
2013-04-16 12:52:00,37.0,34.0,30.03,West,281,0.0,4.0,89,0.00,,,0.08,,2013-04-16 12:52:00,
2013-04-16 13:02:00,38.0,35.0,30.04,NNW,328,0.0,5.0,88,0.00,,,0.08,,2013-04-16 13:02:00,
2013-04-16 13:12:00,38.0,35.0,30.04,NNW,328,0.0,5.0,88,0.00,,,0.08,,2013-04-16 13:12:00,
2013-04-16 13:22:00,40.0,36.0,30.05,WNW,282,0.0,4.0,86,0.00,,,0.08,,2013-04-16 13:22:00,
2013-04-16 13:32:00,39.0,35.0,30.05,WNW,285,0.0,5.0,84,0.00,,,0.08,,2013-04-16 13:32:00,
2013-04-16 13:42:00,39.0,35.0,30.05,WNW,285,0.0,5.0,84,0.00,,,0.08,,2013-04-16 13:42:00,
2013-04-16 13:52:00,41.0,36.0,30.06,WNW,299,0.0,8.0,81,0.00,,,0.08,,2013-04-16 13:52:00,
2013-04-16 14:02:00,41.0,35.0,30.06,NNE,23,2.0,7.0,80,0.00,,,0.08,,2013-04-16 14:02:00,
2013-04-16 14:12:00,41.0,35.0,30.06,NNE,23,2.0,7.0,80,0.00,,,0.08,,2013-04-16 14:12:00,
2013-04-16 14:22:00,40.0,35.0,30.03,NNE,21,2.0,5.0,83,0.00,,,0.08,,2013-04-16 14:22:00,
2013-04-16 14:32:00,42.0,36.0,30.06,North,5,1.0,5.0,80,0.00,,,0.08,,2013-04-16 14:32:00,
2013-04-16 14:42:00,42.0,36.0,30.06,North,5,1.0,5.0,80,0.00,,,0.08,,2013-04-16 14:42:00,
2013-04-16 14:52:00,43.0,37.0,30.08,West,280,5.0,5.0,78,0.00,,,0.08,,2013-04-16 14:52:00,
2013-04-16 15:02:00,44.0,36.0,30.08,NNE,32,4.0,8.0,73,0.00,,,0.08,,2013-04-16 15:02:00,
2013-04-16 15:12:00,44.0,36.0,30.08,NNE,32,4.0,8.0,73,0.00,,,0.08,,2013-04-16 15:12:00,
2013-04-16 15:22:00,44.0,36.0,30.08,West,279,1.0,5.0,73,0.00,,,0.08,,2013-04-16 15:22:00,
2013-04-16 15:33:00,43.0,35.0,30.09,WNW,288,0.0,8.0,73,0.00,,,0.08,,2013-04-16 15:33:00,
2013-04-16 15:43:00,43.0,35.0,30.09,WNW,288,0.0,8.0,73,0.00,,,0.08,,2013-04-16 15:43:00,
2013-04-16 15:53:00,45.0,37.0,30.08,NNE,25,1.0,7.0,73,0.00,,,0.08,,2013-04-16 15:53:00,
2013-04-16 16:03:00,46.0,37.0,30.09,NNE,17,0.0,5.0,71,0.00,,,0.08,,2013-04-16 16:03:00,
2013-04-16 16:13:00,46.0,37.0,30.09,NNE,17,0.0,5.0,71,0.00,,,0.08,,2013-04-16 16:13:00,
2013-04-16 16:23:00,46.0,37.0,30.10,NNE,23,3.0,6.0,70,0.00,,,0.08,,2013-04-16 16:23:00,
2013-04-16 16:32:00,46.0,36.0,30.10,WNW,288,3.0,8.0,67,0.00,,,0.08,,2013-04-16 16:32:00,
2013-04-16 16:42:00,46.0,36.0,30.10,WNW,288,3.0,8.0,67,0.00,,,0.08,,2013-04-16 16:42:00,
2013-04-16 16:53:00,46.0,36.0,30.11,North,5,5.0,5.0,69,0.00,,,0.08,,2013-04-16 16:53:00,
2013-04-16 17:02:00,46.0,36.0,30.11,WNW,297,0.0,5.0,68,0.00,,,0.08,,2013-04-16 17:02:00,
2013-04-16 17:12:00,46.0,36.0,30.11,WNW,297,0.0,5.0,68,0.00,,,0.08,,2013-04-16 17:12:00,
2013-04-16 17:22:00,46.0,36.0,30.10,WNW,296,5.0,5.0,68,0.00,,,0.08,,2013-04-16 17:22:00,
2013-04-16 17:32:00,47.0,37.0,30.11,NNE,17,2.0,4.0,67,0.00,,,0.08,,2013-04-16 17:32:00,
2013-04-16 17:43:00,47.0,37.0,30.11,NNE,17,2.0,4.0,67,0.00,,,0.08,,2013-04-16 17:43:00,
2013-04-16 17:52:00,47.0,37.0,30.11,NW,317,0.0,6.0,68,0.00,,,0.08,,2013-04-16 17:52:00,
2013-04-16 18:02:00,49.0,37.0,30.11,NNE,30,3.0,5.0,63,0.00,,,0.08,,2013-04-16 18:02:00,
2013-04-16 18:12:00,49.0,37.0,30.11,NNE,30,3.0,5.0,63,0.00,,,0.08,,2013-04-16 18:12:00,
2013-04-16 18:22:00,49.0,38.0,30.10,North,355,0.0,4.0,66,0.00,,,0.08,,2013-04-16 18:22:00,
2013-04-16 18:32:00,50.0,38.0,30.10,WNW,286,0.0,5.0,64,0.00,,,0.08,,2013-04-16 18:32:00,
2013-04-16 18:42:00,50.0,38.0,30.10,WNW,286,0.0,5.0,64,0.00,,,0.08,,2013-04-16 18:42:00,
2013-04-16 18:52:00,51.0,38.0,30.10,NW,317,0.0,5.0,60,0.00,,,0.08,,2013-04-16 18:52:00,
2013-04-16 19:02:00,52.0,37.0,30.09,NNE,16,1.0,7.0,57,0.00,,,0.08,,2013-04-16 19:02:00,
2013-04-16 19:12:00,52.0,37.0,30.09,NNE,16,1.0,7.0,57,0.00,,,0.08,,2013-04-16 19:12:00,
2013-04-16 19:22:00,51.0,36.0,30.09,North,360,2.0,6.0,57,0.00,,,0.08,,2013-04-16 19:22:00,
2013-04-16 19:32:00,51.0,38.0,30.09,NNE,12,0.0,7.0,62,0.00,,,0.08,,2013-04-16 19:32:00,
2013-04-16 19:42:00,51.0,38.0,30.09,NNE,12,0.0,7.0,62,0.00,,,0.08,,2013-04-16 19:42:00,
2013-04-16 19:52:00,52.0,38.0,30.09,SSE,154,1.0,5.0,59,0.00,,,0.08,,2013-04-16 19:52:00,
2013-04-16 20:02:00,51.0,38.0,30.09,NW,307,0.0,8.0,62,0.00,,,0.08,,2013-04-16 20:02:00,
2013-04-16 20:12:00,51.0,38.0,30.09,NW,307,0.0,8.0,62,0.00,,,0.08,,2013-04-16 20:12:00,
2013-04-16 20:22:00,51.0,38.0,30.09,NW,307,0.0,8.0,62,0.00,,,0.08,,2013-04-16 20:22:00,
2013-04-16 20:32:00,52.0,41.0,30.10,NNE,22,3.0,7.0,65,0.00,,,0.08,,2013-04-16 20:32:00,
2013-04-16 20:42:00,52.0,41.0,30.10,NNE,22,3.0,7.0,65,0.00,,,0.08,,2013-04-16 20:42:00,
2013-04-16 20:52:00,53.0,40.0,30.10,WNW,288,0.0,5.0,61,0.00,,,0.08,,2013-04-16 20:52:00,
2013-04-16 21:02:00,53.0,41.0,30.09,WNW,296,0.0,2.0,63,0.00,,,0.08,,2013-04-16 21:02:00,
2013-04-16 21:12:00,53.0,41.0,30.09,WNW,296,0.0,2.0,63,0.00,,,0.08,,2013-04-16 21:12:00,
2013-04-16 21:22:00,51.0,42.0,30.09,NE,39,1.0,8.0,70,0.00,,,0.08,,2013-04-16 21:22:00,
2013-04-16 21:32:00,51.0,41.0,30.09,NNE,17,3.0,6.0,69,0.00,,,0.08,,2013-04-16 21:32:00,
2013-04-16 21:43:00,51.0,41.0,30.09,NNE,17,3.0,6.0,69,0.00,,,0.08,,2013-04-16 21:43:00,
2013-04-16 21:53:00,53.0,42.0,30.10,North,355,1.0,5.0,65,0.01,,,0.07,,2013-04-16 21:53:00,
2013-04-16 22:02:00,53.0,42.0,30.10,NNE,25,3.0,5.0,66,0.01,,,0.07,,2013-04-16 22:02:00,
2013-04-16 22:13:00,53.0,42.0,30.10,NNE,25,3.0,5.0,66,0.01,,,0.07,,2013-04-16 22:13:00,
2013-04-16 22:22:00,53.0,42.0,30.10,NE,55,1.0,4.0,65,0.01,,,0.07,,2013-04-16 22:22:00,
2013-04-16 22:33:00,53.0,41.0,30.09,NNE,24,1.0,7.0,64,0.01,,,0.07,,2013-04-16 22:33:00,
2013-04-16 22:42:00,53.0,41.0,30.09,NNE,24,1.0,7.0,64,0.01,,,0.07,,2013-04-16 22:42:00,
2013-04-16 22:52:00,53.0,40.0,30.10,NE,47,0.0,7.0,62,0.00,,,0.07,,2013-04-16 22:52:00,
2013-04-16 23:02:00,53.0,40.0,30.10,NE,55,2.0,4.0,61,0.00,,,0.07,,2013-04-16 23:02:00,
2013-04-16 23:12:00,53.0,40.0,30.10,NE,55,2.0,4.0,61,0.00,,,0.07,,2013-04-16 23:12:00,
2013-04-16 23:22:00,54.0,41.0,30.10,ENE,61,0.0,4.0,61,0.00,,,0.06,,2013-04-16 23:22:00,
2013-04-16 23:32:00,54.0,40.0,30.10,NE,56,0.0,4.0,60,0.00,,,0.06,,2013-04-16 23:32:00,
2013-04-16 23:42:00,54.0,40.0,30.10,NE,56,0.0,4.0,60,0.00,,,0.06,,2013-04-16 23:42:00,
2013-04-16 23:52:00,54.0,40.0,30.11,ENE,60,3.0,3.0,60,0.00,,,0.06,,2013-04-16 23:52:00,